User: anonymous   Login
Location: Unspecified
(0.0000°N, 0.0000°E)
Time: 16:30:49
(UTC+00:00)
Language:

LES 1 - Orbit

View from above orbital plane
View from above orbital plane
View from above satellite
View from above satellite

Ground track
Ground track

The orbit data is extracted from the following two-line orbital elements,

1  1002U 65008C   17204.33965446 -.00000006 +00000-0 -19101-2 0  9998
2  1002 032.1390 185.8627 0014916 044.8076 315.3624 09.88352786894551
Epoch (UTC): 23 July 2017 08:09:06
Eccentricity: 0.0014916
inclination: 32.1390°
perigee height: 2780 km
apogee height: 2807 km
right ascension of ascending node: 185.8627°
argument of perigee: 44.8076°
revolutions per day: 9.88352786
mean anomaly at epoch: 315.3624°
orbit number at epoch: 89455

The dashed part of the orbit path shows where the satellite is in the earth's shadow,  

DLR